{"data":{"norad_id":28924,"epoch":"2026-09-19T17:52:41.483712Z","epoch_age_seconds":79701,"freshness":"FRESH","line1":"1 28924U 05052A   26262.74492458  .00000007  00000+0  00000+0 0  9993","line2":"2 28924   4.4515  75.3028 0005999 101.9972 263.5456  1.00274755 53282","mean_motion":1.00274755,"eccentricity":0.0005999,"inclination_deg":4.4515,"raan_deg":75.3028,"arg_perigee_deg":101.9972,"mean_anomaly_deg":263.5456,"bstar":0,"rev_number":5328,"period_min":1436.054368819,"perigee_km":35760.468259687,"apogee_km":35811.056506167,"semimajor_km":42163.899382927,"source":"CELESTRAK","updated_at":"2026-09-20T09:00:35.126003Z"}}